Cardak, Turkey

8:21 AM +03 on December 13, 2017 (GMT +0300)
Cardak Air Base

Weather History for LTAY - June, 2017

Change the Weather History Date:

Monday, June 19, 2017

  Actual Average Record
Temperature  
Mean Temperature 63 °F -  
Max Temperature 71 °F - - ()
Min Temperature 55 °F - - ()
Degree Days  
Heating Degree Days 2    
Growing Degree Days 13 (Base 50)    
Moisture  
Dew Point 52 °F    
Average Humidity 73    
Maximum Humidity 100    
Minimum Humidity 46    
Precipitation  
Precipitation 0.00 in - - ()
Sea Level Pressure  
Sea Level Pressure 29.88 in    
Wind  
Wind Speed 7 mph ()    
Max Wind Speed 21 mph    
Max Gust Speed 33 mph    
Visibility 6.1 miles    
Events      
T = Trace of Precipitation, MM = Missing Value Source: Averaged Metar Reports

Daily Weather History Graph

Daily Weather History Graph

Search for Another Location

Airport or City:

Trip Planner

Search our weather history database for the weather conditions in past years. The results will help you decide how hot, cold, wet, or windy it might be!

Date:

Astronomy

Jun. 19, 2017 Rise Set
Actual Time 5:39 AM +03 8:26 PM +03
Civil Twilight 5:07 AM +03 8:57 PM +03
Nautical Twilight 4:28 AM +03 9:36 PM +03
Astronomical Twilight 3:44 AM +03 10:21 PM +03
Moon 2:10 AM +03 (6/19) 3:00 PM +03 (6/19)
Length of Visible Light 15h 49m
Length of Day
14h 46m
Waning Crescent, 30% of the Moon is Illuminated
Jun 19
Waning Crescent
Jun 24
New
Jul 1
First Quarter
Jul 9
Full
Jul 16
Last Quarter

Hourly Weather History & Observations

Time (+03) Temp. Dew Point Humidity Pressure Visibility Wind Dir Wind Speed Gust Speed Precip Events Conditions
12:41 AM 57.2 °F 55.4 °F 94% 29.89 in 5.0 mi SSW 4.6 mph - N/A   Mostly Cloudy
12:50 AM 57.2 °F 55.4 °F 94% 29.89 in 5.0 mi South 4.6 mph - N/A   Mostly Cloudy
1:50 AM 57.2 °F 55.4 °F 94% 29.89 in 6.2 mi WSW 2.3 mph - N/A   Mostly Cloudy
2:50 AM 57.2 °F 57.2 °F 100% 29.86 in 6.2 mi SSE 4.6 mph - N/A   Mostly Cloudy
3:50 AM 57.2 °F 57.2 °F 100% 29.86 in 6.2 mi West 1.2 mph - N/A   Mostly Cloudy
4:50 AM 57.2 °F 57.2 °F 100% 29.86 in 6.2 mi West 1.2 mph - N/A   Mostly Cloudy
5:50 AM 57.2 °F 55.4 °F 94% 29.86 in 6.2 mi WSW 3.5 mph - N/A   Mostly Cloudy
6:50 AM 57.2 °F 55.4 °F 94% 29.86 in 6.2 mi West 4.6 mph - N/A   Mostly Cloudy
7:50 AM 59.0 °F 55.4 °F 88% 29.86 in 6.2 mi West 5.8 mph - N/A   Mostly Cloudy
8:50 AM 60.8 °F 55.4 °F 82% 29.86 in 6.2 mi WNW 8.1 mph - N/A   Mostly Cloudy
9:50 AM 60.8 °F 55.4 °F 82% 29.86 in 6.2 mi West 12.7 mph - N/A   Mostly Cloudy
10:50 AM 64.4 °F 53.6 °F 68% 29.86 in 6.2 mi West 12.7 mph - N/A   Mostly Cloudy
11:50 AM 66.2 °F 51.8 °F 60% 29.86 in 6.2 mi West 13.8 mph - N/A   Mostly Cloudy
12:50 PM 68.0 °F 50.0 °F 52% 29.86 in 6.2 mi West 13.8 mph - N/A   Mostly Cloudy
1:50 PM 69.8 °F 51.8 °F 53% 29.83 in 6.2 mi NW 12.7 mph - N/A   Mostly Cloudy
2:50 PM 71.6 °F 51.8 °F 50% 29.86 in 6.2 mi NW 17.3 mph - N/A   Mostly Cloudy
3:50 PM 69.8 °F 50.0 °F 49% 29.86 in 6.2 mi NNW 20.7 mph 33.4 mph N/A   Mostly Cloudy
4:50 PM 68.0 °F 48.2 °F 49% 29.89 in 6.2 mi NNW 16.1 mph 27.6 mph N/A   Mostly Cloudy
5:50 PM 68.0 °F 46.4 °F 46% 29.89 in 6.2 mi NW 11.5 mph - N/A   Scattered Clouds
6:50 PM 64.4 °F 46.4 °F 52% 29.89 in 6.2 mi NNW 13.8 mph - N/A   Scattered Clouds
7:50 PM 62.6 °F 44.6 °F 52% 29.92 in 6.2 mi NNW 10.4 mph - N/A   Scattered Clouds
8:50 PM 57.2 °F 44.6 °F 63% 29.92 in 6.2 mi WSW 9.2 mph - N/A   Scattered Clouds
9:50 PM 57.2 °F 44.6 °F 63% 29.95 in 6.2 mi West 6.9 mph - N/A   Scattered Clouds
10:50 PM 55.4 °F 44.6 °F 67% 29.95 in 6.2 mi West 9.2 mph - N/A   Partly Cloudy
11:50 PM 55.4 °F 46.4 °F 72% 29.95 in 6.2 mi WSW 9.2 mph - N/A   Partly Cloudy